Location: Unspecified
(0.0000°N, 0.0000°E)
Time: 07:09:26
(UTC+00:00)

Vanguard 2 Rocket - Pass Details

Date: 09 October 2023
Orbit: 552 x 3312 km, 32.9° (Epoch: 06 December)

Event Time Altitude Azimuth Distance (km) Brightness Sun altitude
Rises 04:41:52 0° 248° (WSW) 2,994 - -16.3°
Reaches altitude 10° 04:43:53 10° 254° (WSW) 2,240 - -15.8°
Exits shadow 04:45:33 22° 263° (W) 1,686 7.7 -15.4°
Maximum altitude 04:48:52 51° 330° (NNW) 1,211 7.3 -14.6°
Drops below altitude 10° 04:57:10 10° 44° (NE) 3,675 10.5 -12.5°
Sets 05:01:23 0° 48° (NE) 5,138 11.4 -11.4°
